Regional Weather Roundup
Issued by NWS

Home | Current Version | Previous Version | Graphics & Text | Print | Product List | Glossary On
Versions: 1 2 3 4 5 6 7 8 9 10 11 12 13 14 15 16 17 18 19 20 21 22 23 24 25 26 27 28 29 30 31 32 33 34 35 36 37 38 39 40 41 42 43 44 45 46 47 48 49 50
000
ASUS44 KMEG 231900
RWRTN
TENNESSEE HOURLY STATE WEATHER ROUNDUP
NATIONAL WEATHER SERVICE MEMPHIS TN
100 PM CST MON JAN 23 2017

TNZ002-004-019-021-049-052-054-088>092-232000-
WEST TENNESSEE

CITY           SKY/WX    TMP DP  RH WIND       PRES   REMARKS
MEMPHIS INTL   CLOUDY    49  38  65 NW10      29.81F
NWS MEMPHIS      N/A     49 N/A N/A MISG        N/A
JACKSON        CLOUDY    49  40  71 NW15      29.76F
DYERSBURG      CLOUDY    48  36  61 N12       29.77F
UNION CITY     PTSUNNY   45  39  81 NW14      29.75F
PARIS          CLOUDY    45  37  76 NW7G15    29.73S
$$

TNZ008-025-027-028-033-062-065-066-232000-
NORTH MIDDLE TENNESSEE

CITY           SKY/WX    TMP DP  RH WIND       PRES   REMARKS
NASHVILLE      CLOUDY    49  40  71 NW14      29.65S
CLARKSVILLE    CLOUDY    46  37  71 NW16      29.70F
SMYRNA         CLOUDY    48  42  80 NW17      29.64F
CROSSVILLE     CLOUDY    46  44  93 NW18G29   29.52R FOG
$$

TNZ061-075-076-078-094-096-097-232000-
SOUTH MIDDLE TENNESSEE

CITY           SKY/WX    TMP DP  RH WIND       PRES   REMARKS
TULLAHOMA      CLOUDY    46  43  87 NW15      29.60F
WINCHESTER     CLOUDY    46  43  87 N8        29.60F
COLUMBIA       PTSUNNY   54  45  71 NW13      29.63S
SHELBYVILLE    CLOUDY    50  45  81 NW16      29.63S
$$

TNZ017-018-042-046-047-232000-
NORTHEAST TENNESSEE

CITY           SKY/WX    TMP DP  RH WIND       PRES   REMARKS
TRI CITIES     CLOUDY    51  45  79 N6        29.35R
$$

TNZ012-013-036-069-073-074-232000-
CENTRAL EAST TENNESSEE

CITY           SKY/WX    TMP DP  RH WIND       PRES   REMARKS
KNOXVILLE      CLOUDY    55  49  80 NW10G17   29.41R
OAK RIDGE      CLOUDY    57  46  66 NW9       29.44R
GATLINBURG     CLOUDY    52  52 100 W12       29.39S
$$

TNZ083-085-099-232000-
SOUTHEAST TENNESSEE

CITY           SKY/WX    TMP DP  RH WIND       PRES   REMARKS
CHATTANOOGA    PTSUNNY   53  44  71 N8        29.54R
$$

SKY/WX REPORTED AS FAIR MEANS FEW OR NO CLOUDS BELOW
12 THOUSAND FEET.




USA.gov is the U.S. government's official web portal to all federal, state and local government web resources and services.